EDT,Max TemperatureF,Mean TemperatureF,Min TemperatureF,Max Dew PointF,MeanDew PointF,Min DewpointF,Max Humidity, Mean Humidity, Min Humidity, Max Sea Level PressureIn, Mean Sea Level PressureIn, Min Sea Level PressureIn, Max VisibilityMiles, Mean VisibilityMiles, Min VisibilityMiles, Max Wind SpeedMPH, Mean Wind SpeedMPH, Max Gust SpeedMPH,PrecipitationIn, CloudCover, Events, WindDirDegrees
2013-6-1,73,66,58,62,59,56,93,83,73,29.75,29.66,29.62,10,8,2,17,6,23,0.37,6,Rain-Thunderstorm,171
2013-6-2,59,49,39,55,41,33,96,81,65,29.98,29.75,29.60,10,10,7,26,12,37,0.06,8,Rain,296
2013-6-3,52,45,37,36,33,30,79,65,50,30.10,30.02,29.96,10,10,10,22,12,32,0.00,0,,298
2013-6-4,65,52,39,38,33,29,76,52,27,30.22,30.18,30.12,10,10,10,14,6,20,0.00,0,,289
2013-6-5,56,52,48,43,40,36,71,63,55,30.25,30.20,30.15,10,10,10,14,5,19,0.00,6,,114
2013-6-6,70,61,51,44,39,32,77,53,28,30.14,30.05,30.00,10,10,10,13,6,18,0.00,3,,343
2013-6-7,73,58,43,43,37,32,76,51,26,29.99,29.95,29.91,10,10,10,15,5,20,0.00,0,,290
2013-6-8,73,57,40,46,40,32,83,55,27,30.06,29.97,29.92,10,10,10,12,4,14,0.00,1,,271
2013-6-9,75,60,44,47,43,38,83,57,31,30.14,30.09,30.05,10,10,10,17,6,23,0.00,0,,112
2013-6-10,72,65,57,58,53,45,84,68,52,30.04,29.90,29.84,10,10,10,16,7,20,0.00,3,,114
2013-6-11,70,62,53,63,59,53,100,83,66,29.88,29.84,29.81,10,9,0,12,4,13,0.04,7,Fog-Rain-Thunderstorm,199
2013-6-12,78,64,50,56,51,46,100,67,33,29.91,29.85,29.78,10,6,0,13,5,17,0.00,2,Fog,280
2013-6-13,74,61,48,56,50,44,93,69,45,30.04,29.87,29.74,10,10,10,18,8,23,0.00,3,,325
2013-6-14,68,58,47,44,37,32,80,55,30,30.15,30.08,30.04,10,10,10,13,6,17,0.00,0,,309
2013-6-15,71,57,43,56,47,40,93,68,42,30.04,29.94,29.85,10,8,2,13,3,18,0.19,5,Rain,159
2013-6-16,70,60,50,62,55,47,100,79,57,29.83,29.76,29.72,10,6,0,16,5,23,T,6,Fog-Rain-Thunderstorm,291
2013-6-17,66,57,47,48,46,41,93,73,52,30.03,29.93,29.83,10,10,8,13,5,18,0.00,5,,304
2013-6-18,68,57,46,43,38,35,80,57,34,30.13,30.10,30.04,10,10,10,16,7,21,0.00,0,,342
2013-6-19,73,58,42,45,41,35,83,56,28,30.19,30.13,30.08,10,10,10,17,6,22,0.00,0,,212
2013-6-20,67,59,50,57,51,43,89,78,66,30.17,30.14,30.09,10,10,5,10,4,13,0.10,5,Rain,96
2013-6-21,66,62,58,60,57,53,100,86,72,30.18,30.06,29.96,10,6,1,15,6,24,1.43,8,Rain-Thunderstorm,87
2013-6-22,73,66,59,63,61,57,100,84,68,30.07,30.01,29.92,10,4,0,12,4,17,T,7,Fog-Rain,196
2013-6-23,80,70,60,67,62,59,100,81,62,30.02,29.96,29.84,10,4,0,15,5,19,0.04,6,Fog-Rain,127
2013-6-24,83,71,59,66,63,59,100,78,55,29.93,29.88,29.83,10,7,0,12,4,18,0.00,2,Fog,255
2013-6-25,85,73,60,67,61,55,87,66,44,29.84,29.80,29.78,10,10,10,13,5,17,0.00,2,Thunderstorm,265
2013-6-26,86,72,57,66,60,55,90,67,44,29.81,29.78,29.73,10,9,2,15,3,23,0.08,1,,176
2013-6-27,76,70,63,66,63,60,93,83,73,29.79,29.73,29.68,10,8,1,16,5,22,0.88,6,Rain-Thunderstorm,122
2013-6-28,76,68,60,62,60,58,100,80,60,29.68,29.63,29.61,10,9,2,9,5,16,0.06,6,Rain,55
2013-6-29,76,68,59,60,56,46,84,66,48,29.81,29.70,29.65,10,10,10,9,6,,0.00,4,,332
2013-6-30,74,65,55,49,42,37,57,44,31,30.06,29.95,29.82,10,10,10,18,8,27,0.00,0,,324